SCP
2 1 1 1 1 1 1 1 1 1 1 1 1 2 3 5 5 4 3 2 1 1 0 0 0 0 1 1 1 1 1 1 1 1 1 1 1 1
2 1 1 1 1 1 1 1 1 1 1 1 1 2 2 3 3 3 3 2 1 1 0 0 0 0 1 1 0 0 0 0 1 1 1 2 2 1
2 1 1 1 1 1 1 1 1 1 1 1 2 2 2 2 2 2 2 2 1 0 0 0 0 0 0 0 0 0 0 0 0 1 1 2 2 2
2 2 1 1 1 1 1 1 1 2 2 2 2 2 2 2 2 2 2 2 1 0 0 0 0 0 0 0 0 0 0 0 0 0 1 1 2 2
2 1 1 1 1 2 2 2 2 2 2 2 2 2 2 2 2 1 1 1 1 0 0 0 0 0 0 0 0 0 0 0 0 0 0 0 1 1
2 1 1 1 1 2 2 2 3 3 2 2 1 2 2 1 1 1 1 1 1 1 1 1 0 0 0 0 0 0 0 0 0 0 0 0 0 0
1 1 1 1 1 1 1 2 2 2 2 1 1 1 1 1 1 1 1 1 2 2 2 2 1 1 1 0 0 0 0 0 0 0 0 0 0 0
1 1 1 1 1 1 1 1 1 1 1 1 1 1 1 1 1 1 1 1 2 3 2 2 2 2 2 1 0 0 0 0 0 0 0 0 0 0
2 2 2 2 1 1 1 1 1 1 1 1 1 1 1 1 1 1 1 1 1 2 2 2 2 3 2 1 1 0 0 0 0 0 0 0 0 0
2 2 2 2 2 1 1 1 1 1 1 1 1 1 1 1 1 1 1 1 1 1 2 2 3 3 3 3 2 0 0 0 0 0 0 0 0 0
1 1 1 2 1 1 1 1 1 1 0 0 0 0 0 0 1 1 1 1 1 1 1 2 3 4 4 4 2 1 0 0 0 0 0 0 0 0
1 1 1 1 0 0 1 1 1 1 1 0 0 0 0 0 0 1 1 0 0 1 1 1 2 3 3 2 1 1 0 0 0 0 0 0 0 0
1 1 1 0 0 0 0 0 1 1 1 0 0 0 0 1 1 1 1 0 0 1 1 1 1 1 1 1 0 0 0 0 0 0 0 0 0 0
1 1 1 0 0 0 0 0 0 0 0 0 0 0 1 1 1 1 1 1 1 1 1 1 1 1 0 0 0 0 0 0 0 0 0 0 0 0
0 0 0 0 0 0 0 0 0 0 0 0 0 0 1 1 1 1 1 1 0 1 1 1 1 1 0 0 0 0 0 0 0 0 0 0 0 0
0 0 0 0 0 0 0 0 0 0 0 0 0 0 1 1 1 1 1 1 0 0 1 1 1 1 0 0 0 0 0 0 0 1 1 1 1 1
0 0 0 0 0 0 0 0 0 0 0 0 0 0 0 0 0 0 0 0 0 0 1 1 1 1 1 0 0 0 0 0 1 1 1 1 1 1
0 0 0 0 0 0 0 0 0 0 0 0 0 0 0 0 0 0 0 0 0 0 0 1 1 1 1 1 0 0 0 1 1 1 1 1 1 1
0 0 0 0 0 0 0 0 0 0 0 0 0 0 0 0 0 0 0 0 0 0 0 1 2 2 1 1 0 0 0 1 1 1 1 1 1 1
0 0 0 0 0 0 0 0 0 0 0 0 1 1 1 0 0 0 0 0 0 0 1 1 1 1 1 1 1 0 0 1 1 1 1 0 0 0
0 0 0 0 0 0 0 0 0 0 1 1 1 1 1 1 0 0 0 0 0 0 1 1 1 1 1 1 1 0 0 0 0 0 0 0 0 0
0 0 0 0 0 0 0 0 0 0 0 1 1 2 2 1 0 0 0 0 0 0 1 1 1 2 2 1 1 0 0 0 0 0 0 0 0 0
0 0 0 0 0 0 0 0 0 0 0 0 1 2 2 1 1 0 0 0 0 1 1 1 1 2 1 1 1 0 0 0 0 0 0 0 0 0
Wind_Speed
5 5 5 4 4 4 4 5 5 6 5 4 4 3 3 3 2 4 5 6 8 8 8 8 9 9 9 10 10 9 9 8 8 8 8 9 9 10
4 4 5 4 4 4 4 4 5 6 6 3 2 2 3 3 3 5 5 5 8 8 8 8 9 9 10 10 10 10 9 9 9 9 9 9 9 9
5 5 5 5 4 3 4 4 4 5 6 4 3 2 3 5 3 4 5 6 6 9 9 8 8 9 9 10 10 10 10 10 10 9 9 9 9 9
5 5 5 4 4 4 3 4 4 4 5 6 4 3 3 4 4 5 5 5 5 7 9 8 8 9 9 9 10 9 9 9 10 10 9 9 9 9
5 5 6 5 5 4 4 4 4 4 5 5 5 3 3 3 4 5 5 4 5 4 8 9 9 9 9 8 9 9 9 9 9 9 9 9 9 9
5 5 6 6 5 5 4 5 4 5 5 5 4 4 3 3 4 4 4 4 4 4 3 4 7 9 10 10 10 10 10 10 10 9 9 10 10 9
5 5 5 4 4 4 4 4 4 4 4 4 4 3 3 3 3 3 4 4 3 3 4 4 4 5 6 9 10 10 10 10 10 10 11 10 10 10
5 5 5 5 5 6 6 5 5 5 5 4 4 4 4 4 3 4 4 4 4 2 3 4 3 4 4 4 5 9 9 9 10 10 10 11 11 11
5 4 5 3 5 5 6 9 7 7 6 6 6 6 5 4 4 5 4 4 5 4 4 5 4 4 4 3 4 6 8 8 9 9 10 10 11 11
4 4 4 4 4 5 6 5 5 6 7 7 6 6 5 5 5 5 5 5 6 5 4 5 4 4 4 3 5 7 7 8 8 9 9 10 10 10
4 4 4 4 1 3 5 5 5 4 5 4 3 3 3 3 4 4 5 5 5 4 4 5 5 4 4 4 4 8 8 8 8 9 9 10 10 10
4 4 2 2 1 2 4 5 5 4 3 2 3 5 5 4 5 5 5 5 5 4 2 4 4 4 4 3 3 3 5 8 9 9 9 9 9 8
3 3 1 4 2 2 4 4 4 5 4 4 3 3 3 3 4 4 4 5 5 4 2 3 4 4 4 4 3 3 4 4 5 6 8 9 9 8
4 3 1 4 3 3 4 3 4 5 4 3 3 3 2 2 2 2 3 4 4 5 4 4 4 4 5 5 4 4 4 4 4 4 4 6 8 9
3 2 1 2 4 5 5 5 5 4 3 3 3 3 3 2 2 2 3 4 5 5 5 5 5 5 5 5 5 5 5 4 3 4 4 4 4 5
4 3 6 7 6 4 3 5 4 3 3 3 3 3 3 2 3 3 3 4 4 4 5 6 6 7 6 6 6 6 5 5 4 4 5 5 5 5
2 3 4 3 3 2 2 2 3 3 4 3 3 3 3 3 3 3 3 4 4 4 4 4 6 6 7 7 6 6 5 5 4 4 5 6 6 6
3 3 3 2 2 3 3 2 3 3 3 3 3 3 3 3 3 3 3 4 4 4 4 4 4 4 5 5 5 7 6 5 5 5 6 6 7 6
4 3 3 3 3 3 3 3 2 3 3 3 3 3 4 4 4 4 4 4 4 5 4 4 4 4 5 5 4 5 6 5 6 6 6 6 7 6
4 3 3 3 2 2 3 2 2 2 3 3 3 3 4 4 4 4 4 5 5 4 4 4 4 4 5 6 5 4 6 6 6 6 6 6 6 6
3 3 3 3 2 2 2 2 2 2 2 3 3 4 4 4 4 5 4 4 5 5 5 4 3 4 5 5 6 5 4 6 6 6 7 7 6 6
3 3 2 2 2 3 2 2 3 3 3 4 4 4 4 4 5 5 5 5 4 5 5 4 3 4 5 5 6 6 6 5 6 8 8 8 7 6
3 3 3 3 3 3 3 3 4 3 3 3 3 3 4 4 4 4 4 5 5 5 5 5 4 4 5 5 6 6 7 6 5 5 6 8 11 11
Wind_Direction
234 227 238 248 244 245 245 249 260 264 257 226 222 211 232 239 206 233 235 189 203 214 221 226 229 228 226 224 223 224 224 226 229 233 235 237 242 239
233 238 243 249 250 248 250 252 254 262 268 264 247 244 248 249 213 244 247 196 205 213 220 224 227 228 226 223 221 222 224 228 230 233 235 235 237 241
232 231 235 245 246 249 246 249 250 252 257 263 264 252 245 261 255 253 245 240 214 197 208 219 225 229 226 223 223 224 226 229 231 232 234 236 237 239
234 232 235 231 230 249 253 252 255 258 256 260 258 251 244 252 256 259 256 245 246 191 196 212 221 225 225 223 221 221 223 225 229 231 234 234 234 238
239 239 238 235 232 235 244 253 254 251 252 253 254 250 249 249 251 252 255 256 256 202 191 205 212 216 218 217 215 216 219 221 223 226 228 229 229 231
244 246 242 239 238 240 241 248 255 256 249 248 248 246 239 236 239 249 251 243 249 249 234 216 199 205 212 212 212 214 217 220 222 222 224 226 228 229
239 241 240 241 249 254 262 256 251 253 253 251 255 257 253 249 249 254 259 261 249 251 255 236 213 217 212 211 211 213 215 219 222 223 223 223 225 226
243 244 236 223 221 221 239 257 268 260 264 267 263 265 270 268 271 270 266 261 263 245 256 259 250 247 241 238 200 200 212 219 222 223 225 225 225 225
247 249 254 240 233 244 222 219 231 243 252 264 271 275 276 277 274 267 265 269 274 274 263 265 257 253 251 234 174 193 209 218 224 225 226 227 226 224
246 251 259 263 259 267 264 250 242 230 229 239 259 270 279 286 271 268 267 259 262 251 245 260 262 258 254 236 180 196 206 215 223 227 229 230 230 228
248 250 260 257 277 265 259 259 258 245 210 208 240 266 298 308 292 270 258 256 258 256 239 251 260 263 257 245 203 191 205 214 221 228 229 230 232 231
238 227 202 246 298 243 259 266 266 273 272 238 225 231 240 235 227 243 258 262 263 266 247 251 259 268 259 247 244 217 215 214 218 225 227 228 228 236
266 252 175 147 194 236 259 267 278 288 277 264 258 249 237 234 226 224 237 255 261 267 277 266 270 273 272 273 262 253 254 247 225 219 214 217 219 231
277 278 103 135 185 227 243 270 276 268 258 259 268 274 272 274 270 260 240 243 250 258 272 277 270 275 278 277 276 271 261 254 254 255 238 203 211 219
275 353 356 199 222 222 217 238 248 246 254 259 266 272 275 275 263 245 233 232 238 244 244 249 255 263 267 273 276 274 274 267 254 255 258 248 236 225
235 205 205 220 233 249 228 216 229 248 261 267 274 278 278 267 254 252 246 235 238 238 229 235 245 255 259 263 267 269 268 267 265 267 270 262 249 243
260 244 241 226 220 226 233 236 236 230 237 254 262 264 264 261 261 256 256 256 255 259 252 230 229 233 247 263 265 267 270 270 272 277 269 265 257 253
252 249 251 251 246 245 242 234 229 239 244 249 253 261 266 268 267 263 254 251 257 262 266 264 250 240 239 233 246 265 270 274 276 267 263 265 265 260
233 245 250 253 260 258 255 253 248 245 249 248 251 254 257 261 263 266 264 260 259 263 265 267 263 262 267 268 233 224 268 279 279 274 265 264 268 272
239 252 255 258 267 270 265 265 261 251 244 244 248 253 256 259 261 264 263 266 266 264 262 262 261 265 269 279 283 256 230 263 275 277 275 268 264 259
244 254 258 258 259 259 261 263 266 263 262 259 249 251 256 259 264 269 269 263 266 267 269 270 276 259 264 267 269 268 248 227 252 272 278 273 269 263
257 253 257 263 264 263 257 254 253 254 252 254 259 259 258 259 261 264 269 264 258 260 266 270 257 248 255 261 267 273 272 256 231 235 251 264 278 282
261 262 257 252 249 251 262 264 267 272 269 271 270 264 262 261 262 262 264 265 263 260 259 260 259 250 257 262 268 274 277 272 262 245 237 223 227 242